Regional Weather Roundup
Issued by NWS

Home | Current Version | Previous Version | Graphics & Text | Print | Product List | Glossary Off
Versions: 1 2 3 4 5 6 7 8 9 10 11 12 13 14 15 16 17 18 19 20 21 22 23 24 25 26 27 28 29 30 31 32 33 34 35 36 37 38 39 40 41 42 43 44 45 46 47 48 49 50

000
ASUS43 KLMK 261510
RWRKY
KENTUCKY REGIONAL WEATHER ROUNDUP
NATIONAL WEATHER SERVICE LOUISVILLE KY
1100 AM EDT SAT JUL 26 2014

NOTE "FAIR" INDICATES FEW OR NO CLOUDS BELOW 12,000 FEET
WITH NO SIGNIFICANT WEATHER AND/OR OBSTRUCTIONS TO VISIBILITY.

KYZ001>023-026-027-061>063-070>075-261600-
WESTERN AND SOUTH CENTRAL KENTUCKY

CITY           SKY/WX    TMP DP  RH WIND       PRES   REMARKS
PADUCAH        SUNNY     81  71  71 SW13      29.97F
HENDERSON      SUNNY     81  70  69 SW15      29.95S
OWENSBORO      MOSUNNY   81  68  64 SW13      29.98F
HOPKINSVILLE   MOSUNNY   82  67  60 SW16      30.02F
BOWLING GREEN  MOSUNNY   82  64  54 SW10      30.03S
GLASGOW        MOSUNNY   80  63  56 W10       30.04R
$$

KYZ024-025-028>034-038-045-046-053-261600-
NORTH CENTRAL KENTUCKY

CITY           SKY/WX    TMP DP  RH WIND       PRES   REMARKS
LOUISVILLE/SDF CLOUDY    75  64  68 SE8       30.00S
LOUISVILLE/LOU CLOUDY    73  63  70 S5        30.01S
FORT KNOX      PTSUNNY   77  67  70 SW6       30.01R
$$

KYZ035>037-039>044-047>052-055>060-089>105-261600-
NORTHEAST KENTUCKY

CITY           SKY/WX    TMP DP  RH WIND       PRES   REMARKS
LEXINGTON      CLOUDY    73  64  73 S9        30.05R
COVINGTON      CLOUDY    71  63  75 S6        30.01R
FRANKFORT      CLOUDY    71  63  75 S7        30.03R
$$

KYZ054-064>069-076>088-106>120-261600-
SOUTHEAST KENTUCKY

CITY           SKY/WX    TMP DP  RH WIND       PRES   REMARKS
JACKSON        MOSUNNY   76  64  66 VRB5      30.07F
LONDON         PTSUNNY   75  62  64 SW3       30.08S
SOMERSET       CLOUDY    73  63  68 CALM      30.08R
MIDDLESBORO    MOSUNNY   72  66  81 CALM      30.09S
MONTICELLO     PTSUNNY   78  65  64 SW8       30.08R
$$



USA.gov is the U.S. government's official web portal to all federal, state and local government web resources and services.